This is the latest recevied weather packets stored in our database for station/object KF4LQQ-13. If no packets are shown the sender has not sent any weather packets the latest 10 day(s).
| Time | Temp. | Humidity | Pressure | Rain* | Wind** | Luminosity | Snow |
|---|---|---|---|---|---|---|---|
| 1777557534 | 25.56° C | - | 1010.8 hPa | 0 mm | - | - | - |
| 1777556933 | 25° C | - | 1010.8 hPa | 0 mm | - | - | - |
| 1777556333 | 25° C | - | 1010.9 hPa | 0 mm | - | - | - |
| 1777555733 | 25° C | - | 1011 hPa | 0 mm | - | - | - |
| 1777555133 | 25° C | - | 1011.1 hPa | 0 mm | - | - | - |
| 1777554532 | 24.44° C | - | 1011.1 hPa | 0 mm | - | - | - |
| 1777554095 | 23.89° C | - | 1011.3 hPa | 0 mm | - | - | - |
| 1777553932 | 23.89° C | - | 1011.3 hPa | 0 mm | - | - | - |
| 1777553332 | 23.89° C | - | 1010.9 hPa | 0 mm | - | - | - |
| 1777552355 | 23.33° C | - | 1010.5 hPa | 0 mm | - | - | - |
| 1777552127 | 23.33° C | - | 1010.5 hPa | 0 mm | - | - | - |
| 1777551526 | 22.78° C | - | 1010.4 hPa | 0 mm | - | - | - |
| 1777550925 | 23.33° C | - | 1010.4 hPa | 0 mm | - | - | - |
| 1777550322 | 22.22° C | - | 1010.4 hPa | 0 mm | - | - | - |
| 1777549720 | 23.33° C | - | 1010.2 hPa | 0 mm | - | - | - |
| 1777548520 | 22.22° C | - | 1009.6 hPa | 0 mm | - | - | - |
| 1777547917 | 22.22° C | - | 1009.4 hPa | 0 mm | - | - | - |
| 1777547508 | 22.22° C | - | 1009.6 hPa | 0 mm | - | - | - |
| 1777547315 | 22.22° C | - | 1009.6 hPa | 0 mm | - | - | - |
| 1777545507 | 22.78° C | - | 1010.2 hPa | 0 mm | - | - | - |
| 1777544306 | 22.78° C | - | 1009.8 hPa | 0 mm | - | - | - |
| 1777543099 | 22.78° C | - | 1009.7 hPa | 0 mm | - | - | - |
| 1777541893 | 23.33° C | - | 1009.6 hPa | 0 mm | - | - | - |
| 1777541289 | 23.33° C | - | 1009.5 hPa | 0 mm | - | - | - |
| 1777540688 | 23.33° C | - | 1009.5 hPa | 0 mm | - | - | - |
* Rain since midnight (hover to see other rain measurements)
** Current wind speed in m/s (hover to see current wind gust speed)